Location: Gro�sch�nbrunn
(49.5760°N, 11.8868°E)
Time: 13:51:18
(UTC+00:00)

CZ-2C R/B - Pass Details

Date: 18 September 2020
Orbit: 640 x 704 km, 98.4° (Epoch: 25 October)

Event Time Altitude Azimuth Distance (km) Brightness Sun altitude
Rises 19:58:15 0° 12° (NNE) 2,962 7.4 -25.0°
Reaches altitude 10° 20:00:28 10° 10° (N) 2,051 6.5 -25.3°
Maximum altitude 20:04:54 68° 288° (WNW) 703 3.9 -25.9°
Enters shadow 20:05:30 59° 242° (WSW) 752 4.0 -25.9°
